This is the latest recevied weather packets stored in our database for station/object AB8Y-13. If no packets are shown the sender has not sent any weather packets the latest 10 day(s).
| Time | Temp. | Humidity | Pressure | Rain* | Wind** | Luminosity | Snow |
|---|---|---|---|---|---|---|---|
| 1777667009 | 8.33° C | 51% | 1015.1 hPa | 0 mm | - | 173 W/m² | - |
| 1777666706 | 8.33° C | 51% | 1015 hPa | 0 mm | - | 201 W/m² | - |
| 1777666402 | 8.33° C | 50% | 1015.1 hPa | 0 mm | - | 300 W/m² | - |
| 1777666099 | 7.78° C | 50% | 1014.9 hPa | 0 mm | - | 225 W/m² | - |
| 1777665796 | 7.78° C | 51% | 1014.7 hPa | 0 mm | - | 167 W/m² | - |
| 1777665494 | 7.78° C | 52% | 1014.9 hPa | 0 mm | - | 163 W/m² | - |
| 1777665189 | 7.78° C | 50% | 1015 hPa | 0 mm | - | 186 W/m² | - |
| 1777664885 | 7.78° C | 55% | 1015.1 hPa | 0 mm | - | 224 W/m² | - |
| 1777664582 | 7.78° C | 54% | 1015 hPa | 0 mm | - | 221 W/m² | - |
| 1777664278 | 7.78° C | 53% | 1015.1 hPa | 0 mm | - | 132 W/m² | - |
| 1777663977 | 7.78° C | 51% | 1015 hPa | 0 mm | - | 113 W/m² | - |
| 1777663674 | 7.78° C | 53% | 1014.8 hPa | 0 mm | - | 190 W/m² | - |
| 1777663370 | 7.22° C | 54% | 1014.8 hPa | 0 mm | - | 190 W/m² | - |
| 1777663068 | 7.78° C | 51% | 1015 hPa | 0 mm | - | 124 W/m² | - |
| 1777662765 | 7.78° C | 52% | 1014.9 hPa | 0 mm | - | 105 W/m² | - |
| 1777662462 | 8.33° C | 50% | 1014.7 hPa | 0 mm | - | 96 W/m² | - |
| 1777662157 | 8.89° C | 45% | 1014.7 hPa | 0 mm | - | 123 W/m² | - |
| 1777661853 | 8.89° C | 46% | 1014.4 hPa | 0 mm | - | 196 W/m² | - |
| 1777661549 | 8.89° C | 46% | 1014.6 hPa | 0 mm | - | 499 W/m² | - |
| 1777661245 | 8.89° C | 46% | 1014.8 hPa | 0 mm | - | 422 W/m² | - |
| 1777660941 | 8.33° C | 48% | 1014.5 hPa | 0 mm | - | 295 W/m² | - |
| 1777660637 | 8.33° C | 46% | 1014.6 hPa | 0 mm | - | 231 W/m² | - |
| 1777660334 | 8.89° C | 46% | 1014.7 hPa | 0 mm | - | 223 W/m² | - |
| 1777660030 | 8.89° C | 47% | 1014.6 hPa | 0 mm | - | 291 W/m² | - |
| 1777659727 | 8.89° C | 49% | 1014.5 hPa | 0 mm | - | 329 W/m² | - |
* Rain latest hour (hover to see other rain measurements)
** Current wind speed in m/s (hover to see current wind gust speed)